"read_dt","SO2 (ppb)","flags","PMT voltage (V)","lamp voltage (V)","lamp intensity (Hz)","internal temp (C)","react chamber temp (C)","sample flow (l/min)","pres (mmHg)","SO2 bkg (ppb)","SO2 coefficient"
2015-03-13 00:00:00,1829E-3,5C000000,-0724,0840,12133,027.1,045.4,0.473,728.2,01.19,0.508
2015-03-13 00:01:00,1750E-3,5C000000,-0724,0838,12082,027.1,045.4,0.473,728.2,01.19,0.508
2015-03-13 00:02:00,1941E-3,5C000000,-0724,0838,12114,027.1,045.4,0.473,728.2,01.19,0.508
2015-03-13 00:03:00,2070E-3,5C000000,-0724,0838,11920,027.1,045.4,0.473,728.1,01.19,0.508
2015-03-13 00:04:00,1880E-3,5C000000,-0724,0839,12201,027.2,045.4,0.473,728.3,01.19,0.508
2015-03-13 00:05:00,1966E-3,5C000000,-0724,0838,12175,027.1,045.4,0.473,728.3,01.19,0.508
2015-03-13 00:06:00,1989E-3,5C000000,-0724,0838,12211,027.1,045.4,0.473,728.4,01.19,0.508
2015-03-13 00:07:00,1973E-3,5C000000,-0724,0838,12261,027.2,045.4,0.473,728.4,01.19,0.508
2015-03-13 00:08:00,1982E-3,5C000000,-0724,0838,12079,027.2,045.4,0.473,728.5,01.19,0.508
2015-03-13 00:09:00,1823E-3,5C000000,-0724,0838,12107,027.2,045.4,0.473,728.4,01.19,0.508
2015-03-13 00:10:00,1866E-3,5C000000,-0724,0839,12120,027.1,045.4,0.473,728.4,01.19,0.508
2015-03-13 00:11:00,1918E-3,5C000000,-0724,0838,11982,027.2,045.4,0.473,728.4,01.19,0.508
2015-03-13 00:12:00,2040E-3,5C000000,-0724,0839,11985,027.2,045.4,0.473,728.4,01.19,0.508
2015-03-13 00:13:00,1811E-3,5C000000,-0724,0838,12130,027.2,045.4,0.473,728.4,01.19,0.508
2015-03-13 00:14:00,1982E-3,5C000000,-0724,0838,12037,027.2,045.4,0.473,728.4,01.19,0.508
2015-03-13 00:15:00,1946E-3,5C000000,-0724,0839,12171,027.2,045.4,0.473,728.4,01.19,0.508
2015-03-13 00:16:00,1940E-3,5C000000,-0724,0838,12045,027.1,045.4,0.473,728.3,01.19,0.508
2015-03-13 00:17:00,1924E-3,5C000000,-0724,0838,12243,027.1,045.4,0.473,728.3,01.19,0.508
2015-03-13 00:18:00,1946E-3,5C000000,-0724,0839,12107,027.2,045.4,0.473,728.3,01.19,0.508
2015-03-13 00:19:00,1927E-3,5C000000,-0724,0839,12118,027.2,045.4,0.473,728.4,01.19,0.508
2015-03-13 00:20:00,1978E-3,5C000000,-0724,0838,12041,027.1,045.4,0.473,728.4,01.19,0.508
2015-03-13 00:21:00,1947E-3,5C000000,-0724,0838,11979,027.1,045.4,0.473,728.4,01.19,0.508
2015-03-13 00:22:00,1909E-3,5C000000,-0724,0838,12031,027.2,045.4,0.473,728.4,01.19,0.508
2015-03-13 00:23:00,1852E-3,5C000000,-0724,0839,12219,027.2,045.4,0.473,728.2,01.19,0.508
2015-03-13 00:24:00,1974E-3,5C000000,-0724,0838,12031,027.1,045.4,0.473,728.2,01.19,0.508
2015-03-13 00:25:00,1869E-3,5C000000,-0724,0839,12136,027.1,045.4,0.473,728.3,01.19,0.508
2015-03-13 00:26:00,1968E-3,5C000000,-0724,0839,12232,027.1,045.4,0.473,728.2,01.19,0.508
2015-03-13 00:27:00,1888E-3,5C000000,-0724,0839,12085,027.2,045.4,0.473,728.2,01.19,0.508
2015-03-13 00:28:00,2008E-3,5C000000,-0724,0838,12225,027.1,045.4,0.473,728.1,01.19,0.508
2015-03-13 00:29:00,2093E-3,5C000000,-0724,0838,12128,027.2,045.4,0.473,728.1,01.19,0.508
2015-03-13 00:30:00,1776E-3,5C000000,-0724,0838,12183,027.2,045.4,0.473,728.1,01.19,0.508
2015-03-13 00:31:00,2021E-3,5C000000,-0724,0839,12153,027.1,045.4,0.473,727.8,01.19,0.508
2015-03-13 00:32:00,1843E-3,5C000000,-0724,0838,12100,027.1,045.4,0.473,727.5,01.19,0.508
2015-03-13 00:33:00,2010E-3,5C000000,-0724,0837,12003,027.2,045.4,0.473,727.7,01.19,0.508
2015-03-13 00:34:00,1854E-3,5C000000,-0724,0838,12035,027.2,045.4,0.472,727.4,01.19,0.508
2015-03-13 00:35:00,1826E-3,5C000000,-0724,0838,12127,027.2,045.4,0.473,727.8,01.19,0.508
2015-03-13 00:36:00,2042E-3,5C000000,-0724,0838,12090,027.2,045.4,0.473,727.6,01.19,0.508
2015-03-13 00:37:00,1844E-3,5C000000,-0724,0838,12158,027.2,045.4,0.473,727.6,01.19,0.508
2015-03-13 00:38:00,1843E-3,5C000000,-0724,0838,12260,027.2,045.4,0.473,727.5,01.19,0.508
2015-03-13 00:39:00,1957E-3,5C000000,-0724,0838,12277,027.2,045.4,0.472,727.2,01.19,0.508
2015-03-13 00:40:00,1821E-3,5C000000,-0724,0837,12055,027.1,045.4,0.472,727.3,01.19,0.508
2015-03-13 00:41:00,1903E-3,5C000000,-0724,0839,12168,027.1,045.4,0.473,727.3,01.19,0.508
2015-03-13 00:42:00,1979E-3,5C000000,-0724,0838,12196,027.1,045.4,0.473,727.1,01.19,0.508
2015-03-13 00:43:00,1929E-3,5C000000,-0724,0838,12282,027.1,045.4,0.473,727.3,01.19,0.508
2015-03-13 00:44:00,2040E-3,5C000000,-0724,0839,12015,027.1,045.4,0.472,727.2,01.19,0.508
2015-03-13 00:45:00,1964E-3,5C000000,-0724,0838,12115,027.1,045.4,0.473,726.9,01.19,0.508
2015-03-13 00:46:00,2011E-3,5C000000,-0724,0838,12172,027.1,045.4,0.473,727.1,01.19,0.508
2015-03-13 00:47:00,1863E-3,5C000000,-0724,0838,12146,027.1,045.4,0.473,727.1,01.19,0.508
2015-03-13 00:48:00,1845E-3,5C000000,-0724,0838,11997,027.1,045.4,0.472,726.8,01.19,0.508
2015-03-13 00:49:00,1894E-3,5C000000,-0724,0838,12012,027.2,045.4,0.473,726.8,01.19,0.508
2015-03-13 00:50:00,1907E-3,5C000000,-0724,0837,12251,027.1,045.4,0.473,726.7,01.19,0.508
2015-03-13 00:51:00,1954E-3,5C000000,-0724,0837,12310,027.1,045.4,0.472,726.7,01.19,0.508
2015-03-13 00:52:00,1817E-3,5C000000,-0724,0838,12227,027.1,045.4,0.472,726.8,01.19,0.508
2015-03-13 00:53:00,2118E-3,5C000000,-0724,0838,12090,027.2,045.4,0.473,726.7,01.19,0.508
2015-03-13 00:54:00,1912E-3,5C000000,-0724,0837,12155,027.1,045.4,0.473,726.8,01.19,0.508
2015-03-13 00:55:00,1899E-3,5C000000,-0724,0838,12161,027.1,045.4,0.472,726.4,01.19,0.508
2015-03-13 00:56:00,1977E-3,5C000000,-0724,0838,12134,027.1,045.4,0.472,726.4,01.19,0.508
2015-03-13 00:57:00,1804E-3,5C000000,-0724,0839,12107,027.1,045.4,0.473,726.6,01.19,0.508
2015-03-13 00:58:00,1874E-3,5C000000,-0724,0838,11938,027.1,045.4,0.472,726.4,01.19,0.508
2015-03-13 00:59:00,1969E-3,5C000000,-0724,0838,12015,027.1,045.4,0.472,726.5,01.19,0.508
2015-03-13 01:00:00,1787E-3,5C000000,-0724,0838,12181,027.1,045.4,0.472,726.4,01.19,0.508
2015-03-13 01:01:00,1991E-3,5C000000,-0724,0838,12181,027.1,045.4,0.473,726.5,01.19,0.508
2015-03-13 01:02:00,1901E-3,5C000000,-0724,0838,12009,027.1,045.4,0.472,726.4,01.19,0.508
2015-03-13 01:03:00,1963E-3,5C000000,-0724,0838,12221,027.1,045.4,0.472,726.6,01.19,0.508
2015-03-13 01:04:00,1947E-3,5C000000,-0724,0838,12179,027.1,045.4,0.473,726.6,01.19,0.508
2015-03-13 01:05:00,1832E-3,5C000000,-0724,0838,12041,027.1,045.4,0.472,726.1,01.19,0.508
2015-03-13 01:06:00,1880E-3,5C000000,-0724,0839,12143,027.2,045.4,0.472,726.6,01.19,0.508
2015-03-13 01:07:00,1871E-3,5C000000,-0724,0838,12134,027.1,045.4,0.473,726.5,01.19,0.508
2015-03-13 01:08:00,1844E-3,5C000000,-0724,0838,12062,027.1,045.4,0.473,726.6,01.19,0.508
2015-03-13 01:09:00,1932E-3,5C000000,-0724,0838,12187,027.1,045.4,0.472,726.6,01.19,0.508
2015-03-13 01:10:00,1911E-3,5C000000,-0724,0838,12154,027.1,045.4,0.472,727.0,01.19,0.508
2015-03-13 01:11:00,1909E-3,5C000000,-0724,0838,12079,027.1,045.4,0.473,727.2,01.19,0.508
2015-03-13 01:12:00,1945E-3,5C000000,-0724,0837,12178,027.1,045.4,0.473,727.0,01.19,0.508
2015-03-13 01:13:00,2030E-3,5C000000,-0724,0837,12193,027.1,045.4,0.472,727.0,01.19,0.508
2015-03-13 01:14:00,1795E-3,5C000000,-0724,0838,11934,027.1,045.4,0.473,727.4,01.19,0.508
2015-03-13 01:15:00,1969E-3,5C000000,-0724,0837,12196,027.1,045.4,0.473,727.3,01.19,0.508
2015-03-13 01:16:00,2047E-3,5C000000,-0724,0839,12155,027.1,045.4,0.473,727.4,01.19,0.508
2015-03-13 01:17:00,1954E-3,5C000000,-0724,0838,12080,027.1,045.4,0.473,727.6,01.19,0.508
2015-03-13 01:18:00,1898E-3,5C000000,-0724,0838,12127,027.1,045.4,0.473,727.5,01.19,0.508
2015-03-13 01:19:00,1910E-3,5C000000,-0724,0838,12139,027.1,045.4,0.473,727.7,01.19,0.508
2015-03-13 01:20:00,1956E-3,5C000000,-0724,0838,12176,027.1,045.4,0.473,727.8,01.19,0.508
2015-03-13 01:21:00,1943E-3,5C000000,-0724,0838,12233,027.1,045.4,0.473,727.8,01.19,0.508
2015-03-13 01:22:00,1819E-3,5C000000,-0724,0837,12147,027.1,045.4,0.473,727.7,01.19,0.508
2015-03-13 01:23:00,1916E-3,5C000000,-0724,0838,12102,027.1,045.4,0.473,728.0,01.19,0.508
2015-03-13 01:24:00,2011E-3,5C000000,-0724,0838,12130,027.1,045.4,0.473,728.0,01.19,0.508
2015-03-13 01:25:00,1776E-3,5C000000,-0724,0838,12001,027.2,045.4,0.473,728.0,01.19,0.508
2015-03-13 01:26:00,1857E-3,5C000000,-0724,0838,12102,027.1,045.4,0.473,728.0,01.19,0.508
2015-03-13 01:27:00,2045E-3,5C000000,-0724,0838,12143,027.1,045.4,0.473,728.1,01.19,0.508
2015-03-13 01:28:00,1889E-3,5C000000,-0724,0838,12087,027.1,045.4,0.473,728.1,01.19,0.508
2015-03-13 01:29:00,1901E-3,5C000000,-0724,0838,12178,027.1,045.4,0.473,728.1,01.19,0.508
2015-03-13 01:30:00,1995E-3,5C000000,-0724,0838,12215,027.1,045.4,0.473,728.1,01.19,0.508
2015-03-13 01:31:00,1852E-3,5C000000,-0724,0838,12055,027.1,045.4,0.473,728.0,01.19,0.508
2015-03-13 01:32:00,1956E-3,5C000000,-0724,0838,12067,027.1,045.4,0.473,728.0,01.19,0.508
2015-03-13 01:33:00,1732E-3,5C000000,-0724,0838,11992,027.1,045.4,0.473,728.1,01.19,0.508
2015-03-13 01:34:00,1901E-3,5C000000,-0724,0839,12232,027.1,045.4,0.473,728.0,01.19,0.508
2015-03-13 01:35:00,1928E-3,5C000000,-0724,0839,12132,027.1,045.4,0.473,728.1,01.19,0.508
2015-03-13 01:36:00,1879E-3,5C000000,-0724,0838,12168,027.1,045.4,0.473,728.1,01.19,0.508
2015-03-13 01:37:00,1891E-3,5C000000,-0724,0838,12224,027.1,045.4,0.473,728.0,01.19,0.508
2015-03-13 01:38:00,1932E-3,5C000000,-0724,0839,12153,027.1,045.4,0.473,728.1,01.19,0.508
2015-03-13 01:39:00,1907E-3,5C000000,-0724,0839,12193,027.1,045.4,0.473,728.1,01.19,0.508
2015-03-13 01:40:00,1931E-3,5C000000,-0724,0838,12190,027.1,045.4,0.473,728.1,01.19,0.508
2015-03-13 01:41:00,1863E-3,5C000000,-0724,0838,11970,027.1,045.4,0.473,728.1,01.19,0.508
2015-03-13 01:42:00,1987E-3,5C000000,-0724,0837,12052,027.1,045.4,0.473,728.1,01.19,0.508
2015-03-13 01:43:00,1888E-3,5C000000,-0724,0837,12166,027.1,045.4,0.473,728.2,01.19,0.508
2015-03-13 01:44:00,1812E-3,5C000000,-0724,0838,12198,027.1,045.4,0.473,728.1,01.19,0.508
2015-03-13 01:45:00,2057E-3,5C000000,-0724,0838,12221,027.1,045.4,0.473,728.1,01.19,0.508
2015-03-13 01:46:00,2008E-3,5C000000,-0724,0838,12130,027.1,045.4,0.473,728.2,01.19,0.508
2015-03-13 01:47:00,1767E-3,5C000000,-0724,0839,12112,027.1,045.4,0.473,728.2,01.19,0.508
2015-03-13 01:48:00,2012E-3,5C000000,-0724,0838,12172,027.2,045.4,0.473,728.2,01.19,0.508
2015-03-13 01:49:00,1911E-3,5C000000,-0724,0838,12167,027.1,045.4,0.473,728.2,01.19,0.508
2015-03-13 01:50:00,2008E-3,5C000000,-0724,0838,12170,027.1,045.4,0.473,728.3,01.19,0.508
2015-03-13 01:51:00,1938E-3,5C000000,-0724,0838,12382,027.2,045.4,0.473,728.2,01.19,0.508
2015-03-13 01:52:00,1984E-3,5C000000,-0724,0838,12079,027.2,045.4,0.473,728.2,01.19,0.508
2015-03-13 01:53:00,1929E-3,5C000000,-0724,0838,11964,027.2,045.4,0.473,728.3,01.19,0.508
2015-03-13 01:54:00,1984E-3,5C000000,-0724,0838,12099,027.2,045.4,0.473,728.3,01.19,0.508
2015-03-13 01:55:00,2098E-3,5C000000,-0724,0837,12209,027.2,045.4,0.473,728.2,01.19,0.508
2015-03-13 01:56:00,1864E-3,5C000000,-0724,0838,12190,027.1,045.4,0.473,728.3,01.19,0.508
2015-03-13 01:57:00,1916E-3,5C000000,-0724,0838,12155,027.1,045.4,0.473,728.3,01.19,0.508
2015-03-13 01:58:00,1811E-3,5C000000,-0724,0838,12153,027.1,045.4,0.473,728.3,01.19,0.508
2015-03-13 01:59:00,1931E-3,5C000000,-0724,0838,12172,027.1,045.4,0.473,728.3,01.19,0.508
2015-03-13 02:00:00,2027E-3,5C000000,-0724,0838,12073,027.1,045.4,0.473,728.3,01.19,0.508
2015-03-13 02:01:00,1895E-3,5C000000,-0724,0837,12012,027.1,045.4,0.473,728.3,01.19,0.508
2015-03-13 02:02:00,1935E-3,5C000000,-0724,0838,12164,027.1,045.4,0.473,728.3,01.19,0.508
2015-03-13 02:03:00,1865E-3,5C000000,-0724,0837,12120,027.1,045.4,0.473,728.2,01.19,0.508
2015-03-13 02:04:00,1980E-3,5C000000,-0724,0838,12163,027.1,045.4,0.473,728.2,01.19,0.508
2015-03-13 02:05:00,1899E-3,5C000000,-0724,0838,12082,027.1,045.4,0.473,728.3,01.19,0.508
2015-03-13 02:06:00,1978E-3,5C000000,-0724,0837,12228,027.1,045.4,0.473,728.2,01.19,0.508
2015-03-13 02:07:00,1893E-3,5C000000,-0724,0839,12139,027.1,045.4,0.473,728.2,01.19,0.508
2015-03-13 02:08:00,1907E-3,5C000000,-0724,0838,12037,027.1,045.4,0.473,728.2,01.19,0.508
2015-03-13 02:09:00,1828E-3,5C000000,-0724,0838,12072,027.1,045.4,0.473,728.2,01.19,0.508
2015-03-13 02:10:00,1975E-3,5C000000,-0724,0838,12165,027.1,045.4,0.473,728.2,01.19,0.508
2015-03-13 02:11:00,1830E-3,5C000000,-0724,0838,12106,027.1,045.4,0.473,728.2,01.19,0.508
2015-03-13 02:12:00,1816E-3,5C000000,-0724,0838,12173,027.1,045.4,0.473,728.1,01.19,0.508
2015-03-13 02:13:00,2076E-3,5C000000,-0724,0838,12138,027.1,045.4,0.473,728.1,01.19,0.508
2015-03-13 02:14:00,1959E-3,5C000000,-0724,0838,12084,027.2,045.4,0.473,728.0,01.19,0.508
2015-03-13 02:15:00,1879E-3,5C000000,-0724,0838,12187,027.1,045.4,0.473,728.1,01.19,0.508
2015-03-13 02:16:00,2039E-3,5C000000,-0724,0839,11942,027.1,045.4,0.473,728.0,01.19,0.508
2015-03-13 02:17:00,2019E-3,5C000000,-0724,0837,12133,027.1,045.4,0.473,728.0,01.19,0.508
2015-03-13 02:18:00,1877E-3,5C000000,-0724,0838,12152,027.1,045.4,0.473,727.9,01.19,0.508
2015-03-13 02:19:00,1873E-3,5C000000,-0724,0839,12219,027.1,045.4,0.472,727.8,01.19,0.508
2015-03-13 02:20:00,1751E-3,5C000000,-0724,0838,12200,027.2,045.4,0.473,727.8,01.19,0.508
2015-03-13 02:21:00,1850E-3,5C000000,-0724,0838,12042,027.2,045.4,0.473,727.9,01.19,0.508
2015-03-13 02:22:00,1876E-3,5C000000,-0724,0837,12099,027.2,045.4,0.473,727.7,01.19,0.508
2015-03-13 02:23:00,1801E-3,5C000000,-0724,0837,12033,027.2,045.4,0.473,727.8,01.19,0.508
2015-03-13 02:24:00,2042E-3,5C000000,-0724,0839,12125,027.1,045.4,0.473,727.9,01.19,0.508
2015-03-13 02:25:00,1973E-3,5C000000,-0724,0838,12088,027.2,045.4,0.473,727.9,01.19,0.508
2015-03-13 02:26:00,1874E-3,5C000000,-0724,0838,12151,027.2,045.4,0.473,727.9,01.19,0.508
2015-03-13 02:27:00,1989E-3,5C000000,-0724,0838,12163,027.2,045.4,0.473,728.0,01.19,0.508
2015-03-13 02:28:00,1871E-3,5C000000,-0724,0838,12148,027.2,045.4,0.472,728.0,01.19,0.508
2015-03-13 02:29:00,1987E-3,5C000000,-0724,0837,12090,027.1,045.4,0.473,728.0,01.19,0.508
2015-03-13 02:30:00,1910E-3,5C000000,-0724,0838,12061,027.1,045.4,0.473,728.1,01.19,0.508
2015-03-13 02:31:00,1905E-3,5C000000,-0724,0837,12144,027.1,045.4,0.473,728.0,01.19,0.508
2015-03-13 02:32:00,1989E-3,5C000000,-0724,0838,12149,027.1,045.4,0.473,728.0,01.19,0.508
2015-03-13 02:33:00,1952E-3,5C000000,-0724,0838,12131,027.2,045.4,0.473,728.1,01.19,0.508
2015-03-13 02:34:00,1885E-3,5C000000,-0724,0838,12217,027.2,045.4,0.473,728.1,01.19,0.508
2015-03-13 02:35:00,1940E-3,5C000000,-0724,0838,12190,027.2,045.4,0.473,728.1,01.19,0.508
2015-03-13 02:36:00,1894E-3,5C000000,-0724,0838,12106,027.2,045.4,0.473,728.1,01.19,0.508
2015-03-13 02:37:00,1827E-3,5C000000,-0724,0838,12092,027.2,045.4,0.473,728.1,01.19,0.508
2015-03-13 02:38:00,1885E-3,5C000000,-0724,0838,12112,027.2,045.4,0.473,728.1,01.19,0.508
2015-03-13 02:39:00,1851E-3,5C000000,-0724,0838,12015,027.2,045.4,0.473,728.1,01.19,0.508
2015-03-13 02:40:00,1953E-3,5C000000,-0724,0838,12190,027.2,045.4,0.473,728.1,01.19,0.508
2015-03-13 02:41:00,1921E-3,5C000000,-0724,0838,12211,027.2,045.4,0.473,728.2,01.19,0.508
2015-03-13 02:42:00,1817E-3,5C000000,-0724,0838,12278,027.2,045.4,0.473,728.2,01.19,0.508
2015-03-13 02:43:00,2003E-3,5C000000,-0724,0837,12125,027.2,045.4,0.473,728.2,01.19,0.508
2015-03-13 02:44:00,2020E-3,5C000000,-0724,0838,12111,027.2,045.4,0.473,728.3,01.19,0.508
2015-03-13 02:45:00,1879E-3,5C000000,-0724,0839,12216,027.2,045.4,0.473,728.2,01.19,0.508
2015-03-13 02:46:00,1854E-3,5C000000,-0724,0838,12334,027.2,045.4,0.473,728.2,01.19,0.508
2015-03-13 02:47:00,1874E-3,5C000000,-0724,0838,12181,027.2,045.4,0.473,728.3,01.19,0.508
2015-03-13 02:48:00,1998E-3,5C000000,-0724,0838,12215,027.2,045.4,0.473,728.3,01.19,0.508
2015-03-13 02:49:00,1985E-3,5C000000,-0724,0838,12105,027.2,045.4,0.473,728.3,01.19,0.508
2015-03-13 02:50:00,2064E-3,5C000000,-0724,0838,11981,027.2,045.4,0.472,728.3,01.19,0.508
2015-03-13 02:51:00,2027E-3,5C000000,-0724,0838,12091,027.2,045.4,0.473,728.2,01.19,0.508
2015-03-13 02:52:00,1776E-3,5C000000,-0724,0838,12057,027.2,045.4,0.473,728.3,01.19,0.508
2015-03-13 02:53:00,1889E-3,5C000000,-0724,0838,12175,027.2,045.4,0.473,728.3,01.19,0.508
2015-03-13 02:54:00,2001E-3,5C000000,-0724,0838,12180,027.2,045.4,0.473,728.3,01.19,0.508
2015-03-13 02:55:00,1831E-3,5C000000,-0724,0838,12263,027.2,045.4,0.473,728.3,01.19,0.508
2015-03-13 02:56:00,1940E-3,5C000000,-0724,0839,12045,027.2,045.4,0.473,728.3,01.19,0.508
2015-03-13 02:57:00,1885E-3,5C000000,-0724,0838,12096,027.2,045.4,0.473,728.3,01.19,0.508
2015-03-13 02:58:00,2011E-3,5C000000,-0724,0839,12155,027.2,045.4,0.473,728.2,01.19,0.508
2015-03-13 02:59:00,1888E-3,5C000000,-0724,0837,12008,027.2,045.4,0.473,728.2,01.19,0.508
2015-03-13 03:00:00,1876E-3,5C000000,-0724,0838,12013,027.2,045.4,0.472,728.1,01.19,0.508
2015-03-13 03:01:00,2037E-3,5C000000,-0724,0838,12059,027.2,045.4,0.473,728.1,01.19,0.508
2015-03-13 03:02:00,1908E-3,5C000000,-0724,0838,12179,027.2,045.4,0.473,728.1,01.19,0.508
2015-03-13 03:03:00,1820E-3,5C000000,-0724,0838,12074,027.2,045.4,0.473,728.0,01.19,0.508
2015-03-13 03:04:00,1890E-3,5C000000,-0724,0838,12096,027.2,045.4,0.473,728.0,01.19,0.508
2015-03-13 03:05:00,1882E-3,5C000000,-0724,0838,12140,027.2,045.4,0.472,727.9,01.19,0.508
2015-03-13 03:06:00,1846E-3,5C000000,-0724,0838,12106,027.2,045.4,0.473,727.9,01.19,0.508
2015-03-13 03:07:00,1944E-3,5C000000,-0724,0838,12042,027.2,045.4,0.473,727.9,01.19,0.508
2015-03-13 03:08:00,1942E-3,5C000000,-0724,0838,12156,027.2,045.4,0.473,727.8,01.19,0.508
2015-03-13 03:09:00,1912E-3,5C000000,-0724,0838,12207,027.2,045.4,0.473,727.7,01.19,0.508
2015-03-13 03:10:00,1868E-3,5C000000,-0724,0838,12116,027.1,045.4,0.472,727.6,01.19,0.508
2015-03-13 03:11:00,1931E-3,5C000000,-0724,0838,12068,027.1,045.4,0.473,727.6,01.19,0.508
2015-03-13 03:12:00,2079E-3,5C000000,-0724,0838,12141,027.1,045.4,0.473,727.5,01.19,0.508
2015-03-13 03:13:00,1989E-3,5C000000,-0724,0838,11870,027.1,045.4,0.473,727.6,01.19,0.508
2015-03-13 03:14:00,1956E-3,5C000000,-0724,0837,12138,027.1,045.4,0.473,727.6,01.19,0.508
2015-03-13 03:15:00,1871E-3,5C000000,-0724,0838,12098,027.2,045.4,0.472,727.5,01.19,0.508
2015-03-13 03:16:00,1834E-3,5C000000,-0724,0837,12101,027.1,045.4,0.473,727.5,01.19,0.508
2015-03-13 03:17:00,1891E-3,5C000000,-0724,0837,12127,027.2,045.4,0.473,727.4,01.19,0.508
2015-03-13 03:18:00,1885E-3,5C000000,-0724,0838,12187,027.2,045.4,0.473,727.5,01.19,0.508
2015-03-13 03:19:00,1959E-3,5C000000,-0724,0838,12097,027.2,045.4,0.472,727.5,01.19,0.508
2015-03-13 03:20:00,1915E-3,5C000000,-0724,0838,12097,027.2,045.4,0.473,727.4,01.19,0.508
2015-03-13 03:21:00,1811E-3,5C000000,-0724,0838,12106,027.2,045.4,0.473,727.6,01.19,0.508
2015-03-13 03:22:00,1962E-3,5C000000,-0724,0839,12263,027.2,045.4,0.473,727.7,01.19,0.508
2015-03-13 03:23:00,1837E-3,5C000000,-0724,0838,12284,027.2,045.4,0.473,727.7,01.19,0.508
2015-03-13 03:24:00,1979E-3,5C000000,-0724,0838,12130,027.2,045.4,0.472,727.6,01.19,0.508
2015-03-13 03:25:00,1830E-3,5C000000,-0724,0838,12133,027.2,045.4,0.473,727.7,01.19,0.508
2015-03-13 03:26:00,1982E-3,5C000000,-0724,0838,12079,027.2,045.4,0.473,727.7,01.19,0.508
2015-03-13 03:27:00,1936E-3,5C000000,-0724,0837,12169,027.2,045.4,0.473,727.8,01.19,0.508
2015-03-13 03:28:00,1871E-3,5C000000,-0724,0838,12076,027.2,045.4,0.473,727.9,01.19,0.508
2015-03-13 03:29:00,2024E-3,5C000000,-0724,0837,12089,027.2,045.4,0.473,727.8,01.19,0.508
2015-03-13 03:30:00,2030E-3,5C000000,-0724,0838,12182,027.2,045.4,0.473,727.9,01.19,0.508
2015-03-13 03:31:00,1932E-3,5C000000,-0724,0838,12036,027.2,045.4,0.473,728.0,01.19,0.508
2015-03-13 03:32:00,1949E-3,5C000000,-0724,0838,12048,027.2,045.4,0.473,728.0,01.19,0.508
2015-03-13 03:33:00,1860E-3,5C000000,-0724,0838,11993,027.2,045.4,0.473,728.1,01.19,0.508
2015-03-13 03:34:00,1931E-3,5C000000,-0724,0839,12108,027.2,045.4,0.473,728.2,01.19,0.508
2015-03-13 03:35:00,1977E-3,5C000000,-0724,0838,12124,027.2,045.4,0.473,728.2,01.19,0.508
2015-03-13 03:36:00,1879E-3,5C000000,-0724,0837,12171,027.2,045.4,0.473,728.1,01.19,0.508
2015-03-13 03:37:00,1979E-3,5C000000,-0724,0838,12215,027.2,045.4,0.473,728.1,01.19,0.508
2015-03-13 03:38:00,1917E-3,5C000000,-0724,0837,12214,027.2,045.4,0.473,728.2,01.19,0.508
2015-03-13 03:39:00,1952E-3,5C000000,-0724,0837,12122,027.2,045.4,0.473,728.2,01.19,0.508
2015-03-13 03:40:00,1887E-3,5C000000,-0724,0837,12146,027.2,045.4,0.473,728.2,01.19,0.508
2015-03-13 03:41:00,1932E-3,5C000000,-0724,0838,12077,027.2,045.4,0.473,728.3,01.19,0.508
2015-03-13 03:42:00,1946E-3,5C000000,-0724,0838,12196,027.2,045.4,0.473,728.2,01.19,0.508
2015-03-13 03:43:00,2043E-3,5C000000,-0724,0839,12096,027.2,045.4,0.472,728.3,01.19,0.508
2015-03-13 03:44:00,1723E-3,5C000000,-0724,0838,12218,027.2,045.4,0.473,728.3,01.19,0.508
2015-03-13 03:45:00,1991E-3,5C000000,-0724,0837,12165,027.2,045.4,0.473,728.3,01.19,0.508
2015-03-13 03:46:00,1871E-3,5C000000,-0724,0838,12224,027.2,045.4,0.473,728.3,01.19,0.508
2015-03-13 03:47:00,1895E-3,5C000000,-0724,0838,11962,027.2,045.4,0.473,728.2,01.19,0.508
2015-03-13 03:48:00,1849E-3,5C000000,-0724,0838,12131,027.2,045.4,0.473,728.3,01.19,0.508
2015-03-13 03:49:00,1826E-3,5C000000,-0724,0838,12187,027.2,045.4,0.473,728.2,01.19,0.508
2015-03-13 03:50:00,1809E-3,5C000000,-0724,0837,12138,027.2,045.4,0.473,728.2,01.19,0.508
2015-03-13 03:51:00,1908E-3,5C000000,-0724,0837,12189,027.2,045.4,0.473,728.1,01.19,0.508
2015-03-13 03:52:00,1889E-3,5C000000,-0724,0837,12112,027.1,045.4,0.473,728.1,01.19,0.508
2015-03-13 03:53:00,2076E-3,5C000000,-0724,0838,12126,027.1,045.4,0.473,728.2,01.19,0.508
2015-03-13 03:54:00,1958E-3,5C000000,-0724,0837,12202,027.1,045.4,0.473,728.2,01.19,0.508
2015-03-13 03:55:00,1907E-3,5C000000,-0724,0838,12156,027.1,045.4,0.473,728.2,01.19,0.508
2015-03-13 03:56:00,2087E-3,5C000000,-0724,0838,12151,027.1,045.4,0.473,728.2,01.19,0.508
2015-03-13 03:57:00,1988E-3,5C000000,-0724,0837,12096,027.1,045.4,0.473,728.2,01.19,0.508
2015-03-13 03:58:00,2042E-3,5C000000,-0724,0838,12160,027.1,045.4,0.473,728.1,01.19,0.508
2015-03-13 03:59:00,1950E-3,5C000000,-0724,0838,12069,027.2,045.4,0.473,728.1,01.19,0.508
2015-03-13 04:00:00,1835E-3,5C000000,-0724,0838,12132,027.2,045.4,0.473,728.1,01.19,0.508
2015-03-13 04:01:00,1806E-3,5C000000,-0724,0837,12121,027.2,045.4,0.473,728.2,01.19,0.508
2015-03-13 04:02:00,1964E-3,5C000000,-0724,0838,12012,027.2,045.4,0.473,728.2,01.19,0.508
2015-03-13 04:03:00,1985E-3,5C000000,-0724,0838,12109,027.2,045.4,0.473,728.2,01.19,0.508
2015-03-13 04:04:00,1802E-3,5C000000,-0724,0837,12203,027.2,045.4,0.473,728.2,01.19,0.508
2015-03-13 04:05:00,1845E-3,5C000000,-0724,0837,12169,027.2,045.4,0.473,728.2,01.19,0.508
2015-03-13 04:06:00,1964E-3,5C000000,-0724,0838,12082,027.1,045.4,0.473,728.2,01.19,0.508
2015-03-13 04:07:00,1854E-3,5C000000,-0724,0838,12071,027.1,045.4,0.473,728.2,01.19,0.508
2015-03-13 04:08:00,2060E-3,5C000000,-0724,0837,12089,027.1,045.4,0.473,728.1,01.19,0.508
2015-03-13 04:09:00,1833E-3,5C000000,-0724,0837,12044,027.2,045.4,0.473,728.1,01.19,0.508
2015-03-13 04:10:00,1893E-3,5C000000,-0724,0838,12291,027.2,045.4,0.473,728.2,01.19,0.508
2015-03-13 04:11:00,1785E-3,5C000000,-0724,0838,12140,027.2,045.4,0.473,728.2,01.19,0.508
2015-03-13 04:12:00,1799E-3,5C000000,-0724,0838,12183,027.1,045.4,0.473,728.2,01.19,0.508
2015-03-13 04:13:00,1963E-3,5C000000,-0724,0838,12115,027.1,045.4,0.473,728.2,01.19,0.508
2015-03-13 04:14:00,2041E-3,5C000000,-0724,0838,12285,027.1,045.4,0.473,728.3,01.19,0.508
2015-03-13 04:15:00,1866E-3,5C000000,-0724,0838,12198,027.1,045.4,0.473,728.2,01.19,0.508
2015-03-13 04:16:00,2008E-3,5C000000,-0724,0837,12136,027.1,045.4,0.473,728.3,01.19,0.508
2015-03-13 04:17:00,2056E-3,5C000000,-0724,0838,12125,027.1,045.4,0.473,728.3,01.19,0.508
2015-03-13 04:18:00,1925E-3,5C000000,-0724,0837,12226,027.1,045.4,0.473,728.2,01.19,0.508
2015-03-13 04:19:00,1925E-3,5C000000,-0724,0837,12082,027.1,045.4,0.473,728.2,01.19,0.508
2015-03-13 04:20:00,1971E-3,5C000000,-0724,0838,12244,027.2,045.4,0.473,728.2,01.19,0.508